Time,TemperatureF,DewpointF,PressureIn,WindDirection,WindDirectionDegrees,WindSpeedMPH,WindSpeedGustMPH,Humidity,HourlyPrecipIn,Conditions,Clouds,dailyrainin,SoftwareType,DateUTC
2013-08-09 00:01:00,69.0,59.0,29.87,SE,141,0.0,1.0,70,0.00,,,0.00,weatherlink.com 1.10,2013-08-09 07:01:00,
2013-08-09 00:17:00,68.7,60.0,29.88,SE,125,1.0,2.0,74,0.00,,,0.00,weatherlink.com 1.10,2013-08-09 07:17:00,
2013-08-09 00:32:00,68.1,60.0,29.88,ENE,71,0.0,3.0,75,0.00,,,0.00,weatherlink.com 1.10,2013-08-09 07:32:00,
2013-08-09 00:47:00,67.4,60.0,29.88,ENE,71,0.0,0.0,76,0.00,,,0.00,weatherlink.com 1.10,2013-08-09 07:47:00,
2013-08-09 01:01:00,66.6,59.0,29.88,ENE,71,0.0,0.0,77,0.00,,,0.00,weatherlink.com 1.10,2013-08-09 08:01:00,
2013-08-09 01:16:00,66.1,59.0,29.88,ENE,71,1.0,1.0,78,0.00,,,0.00,weatherlink.com 1.10,2013-08-09 08:16:00,
2013-08-09 01:31:00,65.7,59.0,29.88,ENE,72,0.0,118.0,78,0.00,,,0.00,weatherlink.com 1.10,2013-08-09 08:31:00,
2013-08-09 01:47:00,65.4,59.0,29.87,ENE,72,1.0,2.0,79,0.00,,,0.00,weatherlink.com 1.10,2013-08-09 08:47:00,
2013-08-09 02:01:00,64.9,59.0,29.87,ENE,72,0.0,0.0,81,0.00,,,0.00,weatherlink.com 1.10,2013-08-09 09:01:00,
2013-08-09 02:16:00,64.7,59.0,29.86,ENE,72,0.0,0.0,82,0.00,,,0.00,weatherlink.com 1.10,2013-08-09 09:16:00,
2013-08-09 02:31:00,64.6,59.0,29.86,ENE,72,0.0,0.0,82,0.00,,,0.00,weatherlink.com 1.10,2013-08-09 09:31:00,
2013-08-09 02:47:00,64.3,59.0,29.86,ENE,71,1.0,1.0,83,0.00,,,0.00,weatherlink.com 1.10,2013-08-09 09:47:00,
2013-08-09 03:02:00,64.3,59.0,29.86,ENE,72,1.0,7.0,84,0.00,,,0.00,weatherlink.com 1.10,2013-08-09 10:02:00,
2013-08-09 03:17:00,64.3,60.0,29.85,NE,44,1.0,3.0,85,0.00,,,0.00,weatherlink.com 1.10,2013-08-09 10:17:00,
2013-08-09 03:32:00,64.5,60.0,29.86,NE,39,0.0,2.0,84,0.00,,,0.00,weatherlink.com 1.10,2013-08-09 10:32:00,
2013-08-09 03:47:00,64.0,60.0,29.86,NE,38,0.0,1.0,85,0.00,,,0.00,weatherlink.com 1.10,2013-08-09 10:47:00,
2013-08-09 04:02:00,63.4,59.0,29.86,NE,38,0.0,1.0,85,0.00,,,0.00,weatherlink.com 1.10,2013-08-09 11:02:00,
2013-08-09 04:17:00,63.4,59.0,29.85,NE,38,0.0,3.0,86,0.00,,,0.00,weatherlink.com 1.10,2013-08-09 11:17:00,
2013-08-09 04:32:00,63.7,60.0,29.85,NE,39,1.0,2.0,86,0.00,,,0.00,weatherlink.com 1.10,2013-08-09 11:32:00,
2013-08-09 04:47:00,63.8,60.0,29.85,NE,39,0.0,1.0,86,0.00,,,0.00,weatherlink.com 1.10,2013-08-09 11:47:00,
2013-08-09 05:02:00,63.6,59.0,29.84,NE,41,1.0,2.0,86,0.00,,,0.00,weatherlink.com 1.10,2013-08-09 12:02:00,
2013-08-09 05:17:00,63.8,59.0,29.86,NE,41,0.0,2.0,85,0.00,,,0.00,weatherlink.com 1.10,2013-08-09 12:17:00,
2013-08-09 05:33:00,63.8,60.0,29.87,NE,41,0.0,1.0,86,0.00,,,0.00,weatherlink.com 1.10,2013-08-09 12:33:00,
2013-08-09 05:47:00,63.9,59.0,29.87,NE,41,0.0,1.0,85,0.00,,,0.00,weatherlink.com 1.10,2013-08-09 12:47:00,
2013-08-09 06:02:00,63.5,59.0,29.87,NE,41,0.0,2.0,86,0.00,,,0.00,weatherlink.com 1.10,2013-08-09 13:02:00,
2013-08-09 06:17:00,63.2,59.0,29.87,NNE,12,1.0,2.0,87,0.00,,,0.00,weatherlink.com 1.10,2013-08-09 13:17:00,
2013-08-09 06:32:00,63.1,59.0,29.87,North,11,0.0,2.0,87,0.00,,,0.00,weatherlink.com 1.10,2013-08-09 13:32:00,
2013-08-09 06:47:00,63.1,59.0,29.88,North,11,0.0,2.0,87,0.00,,,0.00,weatherlink.com 1.10,2013-08-09 13:47:00,
2013-08-09 07:03:00,63.1,59.0,29.88,North,11,0.0,2.0,87,0.00,,,0.00,weatherlink.com 1.10,2013-08-09 14:03:00,
2013-08-09 07:18:00,63.3,59.0,29.89,North,11,0.0,1.0,86,0.00,,,0.00,weatherlink.com 1.10,2013-08-09 14:18:00,
2013-08-09 07:34:00,63.3,59.0,29.88,North,11,0.0,0.0,87,0.00,,,0.00,weatherlink.com 1.10,2013-08-09 14:34:00,
2013-08-09 07:48:00,63.4,60.0,29.88,North,11,0.0,1.0,87,0.00,,,0.00,weatherlink.com 1.10,2013-08-09 14:48:00,
2013-08-09 08:03:00,63.7,60.0,29.88,NNE,12,1.0,1.0,86,0.00,,,0.00,weatherlink.com 1.10,2013-08-09 15:03:00,
2013-08-09 08:18:00,64.5,60.0,29.87,ENE,61,0.0,1.0,85,0.00,,,0.00,weatherlink.com 1.10,2013-08-09 15:18:00,
2013-08-09 08:33:00,65.2,60.0,29.87,ENE,61,0.0,1.0,83,0.00,,,0.00,weatherlink.com 1.10,2013-08-09 15:33:00,
2013-08-09 08:48:00,65.6,60.0,29.87,ENE,61,0.0,1.0,82,0.00,,,0.00,weatherlink.com 1.10,2013-08-09 15:48:00,
2013-08-09 09:03:00,66.3,60.0,29.87,ENE,61,0.0,1.0,81,0.00,,,0.00,weatherlink.com 1.10,2013-08-09 16:03:00,
2013-08-09 09:18:00,67.4,61.0,29.88,ENE,60,1.0,1.0,79,0.00,,,0.00,weatherlink.com 1.10,2013-08-09 16:18:00,
2013-08-09 09:34:00,68.3,61.0,29.87,NE,51,0.0,1.0,77,0.00,,,0.00,weatherlink.com 1.10,2013-08-09 16:34:00,
2013-08-09 09:48:00,69.3,61.0,29.87,NE,42,0.0,2.0,74,0.00,,,0.00,weatherlink.com 1.10,2013-08-09 16:48:00,
2013-08-09 10:04:00,70.3,61.0,29.86,NNW,341,1.0,3.0,73,0.00,,,0.00,weatherlink.com 1.10,2013-08-09 17:04:00,
2013-08-09 10:18:00,70.2,61.0,29.85,NNE,27,0.0,3.0,72,0.00,,,0.00,weatherlink.com 1.10,2013-08-09 17:18:00,
2013-08-09 10:33:00,71.1,61.0,29.85,NNE,32,2.0,4.0,71,0.00,,,0.00,weatherlink.com 1.10,2013-08-09 17:33:00,
2013-08-09 10:48:00,72.6,61.0,29.85,North,6,2.0,4.0,67,0.00,,,0.00,weatherlink.com 1.10,2013-08-09 17:48:00,
2013-08-09 11:03:00,74.5,61.0,29.84,ENE,78,1.0,4.0,64,0.00,,,0.00,weatherlink.com 1.10,2013-08-09 18:03:00,
2013-08-09 11:18:00,75.4,61.0,29.84,ENE,72,2.0,4.0,62,0.00,,,0.00,weatherlink.com 1.10,2013-08-09 18:18:00,
2013-08-09 11:33:00,76.7,61.0,29.84,WSW,252,3.0,5.0,59,0.00,,,0.00,weatherlink.com 1.10,2013-08-09 18:33:00,
2013-08-09 11:48:00,76.4,61.0,29.85,SSW,212,1.0,4.0,60,0.00,,,0.00,weatherlink.com 1.10,2013-08-09 18:48:00,
2013-08-09 12:03:00,77.6,62.0,29.85,ENE,77,2.0,4.0,58,0.00,,,0.00,weatherlink.com 1.10,2013-08-09 19:03:00,
2013-08-09 12:18:00,78.1,62.0,29.84,NNE,25,1.0,6.0,57,0.00,,,0.00,weatherlink.com 1.10,2013-08-09 19:18:00,
2013-08-09 12:33:00,79.3,62.0,29.84,NNW,332,1.0,4.0,55,0.00,,,0.00,weatherlink.com 1.10,2013-08-09 19:33:00,
2013-08-09 12:48:00,80.7,62.0,29.84,NW,319,1.0,4.0,53,0.00,,,0.00,weatherlink.com 1.10,2013-08-09 19:48:00,
2013-08-09 13:04:00,80.3,62.0,29.83,East,85,1.0,5.0,53,0.00,,,0.00,weatherlink.com 1.10,2013-08-09 20:04:00,
2013-08-09 13:18:00,81.4,61.0,29.83,ENE,58,1.0,5.0,50,0.00,,,0.00,weatherlink.com 1.10,2013-08-09 20:18:00,
2013-08-09 13:33:00,80.5,61.0,29.83,ESE,114,0.0,5.0,52,0.00,,,0.00,weatherlink.com 1.10,2013-08-09 20:33:00,
2013-08-09 13:48:00,81.5,61.0,29.83,NE,39,1.0,4.0,50,0.00,,,0.00,weatherlink.com 1.10,2013-08-09 20:48:00,
2013-08-09 14:03:00,82.3,62.0,29.82,NNE,30,1.0,4.0,50,0.00,,,0.00,weatherlink.com 1.10,2013-08-09 21:03:00,
2013-08-09 14:18:00,81.8,61.0,29.82,NW,325,2.0,4.0,49,0.00,,,0.00,weatherlink.com 1.10,2013-08-09 21:18:00,
2013-08-09 14:33:00,81.6,61.0,29.81,ENE,74,0.0,4.0,50,0.00,,,0.00,weatherlink.com 1.10,2013-08-09 21:33:00,
2013-08-09 14:48:00,82.4,61.0,29.80,NNE,27,2.0,3.0,49,0.00,,,0.00,weatherlink.com 1.10,2013-08-09 21:48:00,
2013-08-09 15:03:00,82.5,61.0,29.80,NNW,348,1.0,4.0,49,0.00,,,0.00,weatherlink.com 1.10,2013-08-09 22:03:00,
2013-08-09 15:18:00,82.9,61.0,29.80,NNE,30,0.0,5.0,48,0.00,,,0.00,weatherlink.com 1.10,2013-08-09 22:18:00,
2013-08-09 15:33:00,83.3,60.0,29.79,NNW,332,1.0,5.0,46,0.00,,,0.00,weatherlink.com 1.10,2013-08-09 22:33:00,
2013-08-09 15:49:00,83.2,60.0,29.78,WNW,302,3.0,4.0,46,0.00,,,0.00,weatherlink.com 1.10,2013-08-09 22:49:00,
2013-08-09 16:04:00,83.6,61.0,29.77,SW,221,1.0,5.0,46,0.00,,,0.00,weatherlink.com 1.10,2013-08-09 23:04:00,
2013-08-09 16:19:00,84.8,60.0,29.77,SSE,148,0.0,4.0,43,0.00,,,0.00,weatherlink.com 1.10,2013-08-09 23:19:00,
2013-08-09 16:34:00,85.6,59.0,29.76,ENE,65,0.0,4.0,41,0.00,,,0.00,weatherlink.com 1.10,2013-08-09 23:34:00,
2013-08-09 16:49:00,85.6,59.0,29.76,East,81,2.0,4.0,41,0.00,,,0.00,weatherlink.com 1.10,2013-08-09 23:49:00,
2013-08-09 17:04:00,85.4,59.0,29.76,East,96,3.0,5.0,41,0.00,,,0.00,weatherlink.com 1.10,2013-08-10 00:04:00,
2013-08-09 17:19:00,85.0,59.0,29.76,NNW,342,3.0,5.0,41,0.00,,,0.00,weatherlink.com 1.10,2013-08-10 00:19:00,
2013-08-09 17:34:00,84.6,59.0,29.75,WNW,297,1.0,3.0,42,0.00,,,0.00,weatherlink.com 1.10,2013-08-10 00:34:00,
2013-08-09 17:49:00,84.7,58.0,29.74,SE,129,0.0,5.0,41,0.00,,,0.00,weatherlink.com 1.10,2013-08-10 00:49:00,
2013-08-09 18:04:00,83.7,58.0,29.74,NE,39,1.0,4.0,42,0.00,,,0.00,weatherlink.com 1.10,2013-08-10 01:04:00,
2013-08-09 18:19:00,82.5,58.0,29.74,ENE,64,1.0,4.0,44,0.00,,,0.00,weatherlink.com 1.10,2013-08-10 01:19:00,
2013-08-09 18:34:00,81.1,58.0,29.75,ENE,61,3.0,4.0,46,0.00,,,0.00,weatherlink.com 1.10,2013-08-10 01:34:00,
2013-08-09 18:49:00,80.1,58.0,29.77,NW,322,0.0,7.0,47,0.00,,,0.00,weatherlink.com 1.10,2013-08-10 01:49:00,
2013-08-09 19:04:00,79.8,58.0,29.78,NNW,329,0.0,6.0,48,0.00,,,0.00,weatherlink.com 1.10,2013-08-10 02:04:00,
2013-08-09 19:19:00,78.2,61.0,29.79,North,355,7.0,7.0,55,0.00,,,0.00,weatherlink.com 1.10,2013-08-10 02:19:00,
2013-08-09 19:34:00,73.0,57.0,29.81,NW,314,6.0,8.0,57,0.01,,,0.01,weatherlink.com 1.10,2013-08-10 02:34:00,
2013-08-09 19:49:00,68.3,61.0,29.84,WSW,250,3.0,6.0,78,0.01,,,0.01,weatherlink.com 1.10,2013-08-10 02:49:00,
2013-08-09 20:04:00,67.1,62.0,29.87,SSE,147,2.0,6.0,84,0.08,,,0.08,weatherlink.com 1.10,2013-08-10 03:04:00,
2013-08-09 20:20:00,63.8,61.0,29.89,SW,228,2.0,3.0,91,0.13,,,0.13,weatherlink.com 1.10,2013-08-10 03:20:00,
2013-08-09 20:35:00,63.7,62.0,29.92,NNE,13,5.0,5.0,94,0.13,,,0.14,weatherlink.com 1.10,2013-08-10 03:35:00,
2013-08-09 20:50:00,63.5,62.0,29.93,NNW,346,2.0,3.0,93,0.15,,,0.16,weatherlink.com 1.10,2013-08-10 03:50:00,
2013-08-09 21:05:00,63.2,61.0,29.90,SW,222,0.0,5.0,93,0.09,,,0.18,weatherlink.com 1.10,2013-08-10 04:05:00,
2013-08-09 21:20:00,62.8,61.0,29.92,WSW,244,1.0,6.0,95,0.06,,,0.19,weatherlink.com 1.10,2013-08-10 04:20:00,
2013-08-09 21:35:00,62.6,61.0,29.92,SSW,211,0.0,3.0,95,0.05,,,0.19,weatherlink.com 1.10,2013-08-10 04:35:00,
2013-08-09 21:50:00,62.6,61.0,29.91,WSW,238,0.0,3.0,95,0.04,,,0.20,weatherlink.com 1.10,2013-08-10 04:50:00,
2013-08-09 22:05:00,63.1,62.0,29.89,ENE,64,0.0,5.0,96,0.02,,,0.20,weatherlink.com 1.10,2013-08-10 05:05:00,
2013-08-09 22:20:00,63.5,62.0,29.89,NNE,22,0.0,5.0,96,0.01,,,0.20,weatherlink.com 1.10,2013-08-10 05:20:00,
2013-08-09 22:35:00,63.3,62.0,29.89,NNE,22,0.0,1.0,95,0.01,,,0.20,weatherlink.com 1.10,2013-08-10 05:35:00,
2013-08-09 22:50:00,63.1,62.0,29.88,NNE,22,1.0,2.0,95,0.00,,,0.20,weatherlink.com 1.10,2013-08-10 05:50:00,
2013-08-09 23:05:00,62.8,61.0,29.88,NNE,22,0.0,2.0,95,0.00,,,0.20,weatherlink.com 1.10,2013-08-10 06:05:00,
2013-08-09 23:20:00,62.6,62.0,29.88,NNE,22,0.0,52.0,96,0.00,,,0.20,weatherlink.com 1.10,2013-08-10 06:20:00,
2013-08-09 23:35:00,62.4,61.0,29.88,NNE,22,0.0,1.0,96,0.00,,,0.20,weatherlink.com 1.10,2013-08-10 06:35:00,
2013-08-09 23:50:00,62.6,62.0,29.88,NNE,22,0.0,1.0,96,0.00,,,0.20,weatherlink.com 1.10,2013-08-10 06:50:00,